[[{"header":{"parameterUnit":"m.s-1","parameterCategory":1,"la1":30.2992,"la2":30.254,"lo1":-89.0895,"lo2":-89.0443,"dy":0.0025,"dx":0.0025,"nx":19,"ny":19,"refTime":"2026-05-11T21:00:00:Z","depth":0,"parameterNumber":2,"parameterNumberName":"U-component_of_WINDS"},"data":[0,0,0,0.0122,0.0123,0.0179,0.0179,0.0244,0.0244,0,0,0,0,0,0,0,0,0,0,0,0.0099,0.01,0.0122,0.0123,0.0179,0.0179,0.0244,0.0244,0,0,0,0,0,0,0,0,0,0,0,0.0099,0.01,0.01,0.0123,0.0179,0.0179,0.0244,0.0204,0,0,0,0,0,0,0,0,0,0,0.0152,0.0124,0.0099,0.01,0.0123,0.0179,0.0179,0.0203,0.0207,0.0215,0,0.0219,0,0.0233,0.0248,0.0248,0,0,0,0.0128,0.0121,0.0141,0.01,0.0124,0.0178,0.0155,0.0205,0.021,0.0221,0.022,0.0223,0.0234,0.0248,0.0249,0.0276,0.0276,0,0,0.0125,0.0107,0.0138,0.0144,0.0132,0.0153,0.0157,0.0208,0.0207,0.022,0.0225,0.0235,0.0249,0.0249,0.0276,0.0276,0,0,0,0.0113,0.0104,0.0123,0.0141,0.0151,0.0155,0.0159,0.0205,0.0213,0.0225,0.0235,0.0249,0.025,0.0276,0.0276,0.0252,0,0,0,0.0111,0.0097,0.0122,0.0111,0.015,0.0178,0.0154,0.0209,0.0215,0.0235,0.0249,0.025,0.0276,0.0276,0.0253,0.0243,0,0,0,0.0098,0.0096,0.0101,0.011,0.0133,0.0178,0.0189,0.0211,0.0221,0.0248,0.0251,0.0276,0.0276,0.0253,0.0245,0.0245,0,0,0,0.0079,0.008,0.0101,0.0106,0.0133,0.0162,0.0189,0.0212,0.0232,0.0249,0.0276,0.0276,0.0254,0.0246,0.0246,0.0241,0.0238,0,0,0.007,0.0078,0.0083,0.0103,0.0124,0.0155,0.0173,0.021,0.0231,0.026,0.0261,0.0252,0.0245,0.0245,0.0224,0.0221,0,0,0,0.0074,0.0077,0.0087,0.0104,0.0131,0.0155,0.019,0.0205,0.023,0.0241,0.0253,0.0249,0.025,0.0249,0.0246,0.0249,0.0275,0.0275,0.0275,0.0035,0.006,0.007,0.0102,0.0119,0.0156,0.0172,0.0198,0.0219,0.0221,0.023,0.0214,0.0212,0.021,0.0212,0.023,0.023,0.023,0.023,0.0025,0.0033,0.0061,0.0079,0.0107,0.0124,0.0161,0.0175,0.0196,0.021,0.0212,0.0224,0.0206,0.0209,0.0228,0.0229,0.0229,0.0229,0.0229,0.0002,0.001,0.0026,0.0054,0.0074,0.0107,0.0126,0.015,0.0174,0.0176,0.0188,0.0189,0.0192,0.018,0.018,0.018,0.018,0.018,0.018,-0.0029,-0.001,0.0001,0.0031,0.0045,0.0068,0.0106,0.0123,0.0147,0.0164,0.0164,0.0185,0.0199,0.0202,0.0179,0.0179,0.0179,0.018,0.018,-0.005,-0.0041,-0.0024,-0.0009,0.0028,0.0046,0.0078,0.0108,0.0126,0.0134,0.0156,0.0162,0.0173,0.0175,0.0178,0.015,0.015,0.015,0.015,-0.007,-0.0062,-0.0038,-0.0016,0.0009,0.0039,0.006,0.009,0.0124,0.0136,0.0144,0.015,0.0151,0.0161,0.0164,0.0167,0.0136,0.0136,0.0136,-0.0081,-0.007,-0.0058,-0.0027,0.0004,0.0031,0.0052,0.0078,0.0118,0.0136,0.0147,0.0147,0.0157,0.0159,0.0177,0.018,0.0186,0,0]},{"header":{"parameterUnit":"m.s-1","parameterCategory":1,"la1":30.2992,"la2":30.254,"lo1":-89.0895,"lo2":-89.0443,"dy":0.0025,"dx":0.0025,"nx":19,"ny":19,"refTime":"2026-05-11T21:00:00:Z","depth":0,"parameterNumber":3,"parameterNumberName":"V-component_of_WINDS"},"data":[0,0,0,-2.136,-2.1362,-2.1454,-2.1454,-2.1553,-2.1554,0,0,0,0,0,0,0,0,0,0,0,-2.1319,-2.1319,-2.136,-2.1362,-2.1454,-2.1454,-2.1553,-2.1554,0,0,0,0,0,0,0,0,0,0,0,-2.1319,-2.1319,-2.1319,-2.1362,-2.1454,-2.1454,-2.1553,-2.1491,0,0,0,0,0,0,0,0,0,0,-2.1405,-2.1352,-2.1319,-2.1319,-2.1363,-2.1454,-2.1454,-2.1488,-2.1495,-2.1503,0,-2.1504,0,-2.1531,-2.1559,-2.156,0,0,0,-2.1373,-2.1346,-2.1385,-2.1319,-2.1364,-2.1453,-2.1415,-2.1492,-2.15,-2.1512,-2.1506,-2.151,-2.1533,-2.156,-2.156,-2.1573,-2.1573,0,0,-2.1368,-2.1328,-2.1379,-2.1388,-2.137,-2.1412,-2.1418,-2.1497,-2.1489,-2.1507,-2.1513,-2.1534,-2.156,-2.1561,-2.1574,-2.1573,0,0,0,-2.1346,-2.1324,-2.136,-2.1384,-2.1402,-2.1415,-2.1421,-2.1485,-2.1501,-2.1514,-2.1535,-2.1561,-2.1562,-2.1574,-2.1573,-2.1515,0,0,0,-2.1344,-2.1311,-2.1357,-2.1334,-2.14,-2.1444,-2.1407,-2.1495,-2.1505,-2.1535,-2.1561,-2.1563,-2.1575,-2.1574,-2.1517,-2.1493,0,0,0,-2.1318,-2.1308,-2.1317,-2.1331,-2.137,-2.1443,-2.1464,-2.1498,-2.1517,-2.156,-2.1563,-2.1575,-2.1574,-2.152,-2.1497,-2.1488,0,0,0,-2.1279,-2.1259,-2.1315,-2.1303,-2.1368,-2.1406,-2.1464,-2.1493,-2.1522,-2.1561,-2.1574,-2.1573,-2.1521,-2.15,-2.149,-2.1474,-2.1463,0,0,-2.1232,-2.1252,-2.1249,-2.1301,-2.1319,-2.1395,-2.1406,-2.1469,-2.151,-2.1551,-2.1551,-2.1517,-2.1497,-2.1489,-2.1413,-2.1403,0,0,0,-2.1221,-2.1218,-2.1232,-2.1258,-2.1308,-2.1351,-2.1418,-2.1444,-2.1481,-2.1522,-2.1511,-2.1501,-2.1498,-2.1492,-2.1484,-2.1486,-2.1569,-2.1569,-2.1569,-2.1095,-2.1152,-2.1152,-2.122,-2.1246,-2.132,-2.1348,-2.1395,-2.144,-2.1438,-2.1449,-2.1397,-2.1388,-2.1383,-2.1383,-2.1445,-2.1444,-2.1444,-2.1444,-2.1034,-2.1041,-2.1109,-2.1133,-2.1194,-2.1216,-2.1289,-2.1323,-2.1354,-2.139,-2.139,-2.1425,-2.1371,-2.1375,-2.144,-2.1441,-2.1441,-2.1442,-2.1442,-2.0959,-2.0973,-2.1006,-2.1057,-2.109,-2.1162,-2.1192,-2.1246,-2.1296,-2.1296,-2.1319,-2.132,-2.133,-2.1303,-2.1303,-2.1303,-2.1303,-2.1303,-2.1303,-2.0869,-2.0909,-2.0926,-2.0984,-2.1013,-2.1058,-2.1138,-2.1168,-2.1216,-2.1254,-2.1254,-2.1303,-2.1354,-2.1367,-2.13,-2.1301,-2.1301,-2.1301,-2.1301,-2.0788,-2.0817,-2.0843,-2.0873,-2.095,-2.0983,-2.1054,-2.1114,-2.1147,-2.1162,-2.1213,-2.1241,-2.1265,-2.1272,-2.1283,-2.1198,-2.1198,-2.1198,-2.1198,-2.0726,-2.0745,-2.0789,-2.0834,-2.0884,-2.0953,-2.0988,-2.1053,-2.1124,-2.115,-2.1171,-2.119,-2.1195,-2.1216,-2.1224,-2.1236,-2.1141,-2.1141,-2.1141,-2.0681,-2.0709,-2.0725,-2.0797,-2.0864,-2.0921,-2.0957,-2.1009,-2.1096,-2.1139,-2.1173,-2.1175,-2.1207,-2.1214,-2.1255,-2.1266,-2.1287,0,0]}]]